Location: Newark
(49.4900°N, 20.6656°E)
Time: 17:33:08
(UTC+00:00)

STARLINK-1657 - Pass Details

Date: 24 September 2020
Orbit: 548 x 551 km, 53.0° (Epoch: 30 October)

Event Time Altitude Azimuth Distance (km) Brightness Sun altitude
Exits shadow 01:40:45 49° 23° (NNE) 735 4.5 -26.3°
Drops below altitude 10° 01:44:25 10° 75° (ENE) 1,860 7.2 -25.8°
Enters shadow 02:43:06 -66° 278° (W) 12,256 10.4 -17.4°
Maximum altitude 03:20:23 74° 19° (NNE) 590 3.8 -11.6°
